Home   Weather   22°43'N, 71°38'E   Past weeks
Flag for India

Past Weather in 22°43'N, 71°38'E, India — Yesterday and Last 2 Weeks

Now
97 °F

Clear.


Feels Like: 98 °F
Forecast: 96 / 74 °F
Wind: 5 mph from Northeast

Location: Ahmadabad Airport

Current Time: Oct 17, 2019 at 4:50:36 pm

Latest Report: Oct 17, 2019 at 4:00 pm


Visibility: 4 mi

Pressure: 29.86 "Hg

Humidity: 32%

Dew Point: 63 °F

Location of 22°43'N, 71°38'ELocation

Past Weather in 22°43'N, 71°38'E — Graph

°F

22°43'N, 71°38'E Temperature Yesterday

Maximum temperature yesterday: 99 °F (at 2:00 pm)
Minimum temperature yesterday: 72 °F (at 6:00 am)
Average temperature yesterday: 84 °F

High & Low Weather Summary for the Past Weeks

 TemperatureHumidityPressure
High99 °F (Oct 14, 3:30 pm)100% (Oct 3, 5:30 am)29.98 "Hg (Oct 3, 5:30 am)
Low70 °F (Oct 12, 4:30 am)26% (Oct 12, 2:00 pm)29.77 "Hg (Oct 5, 4:00 pm)
Average84 °F69%29.87 "Hg
* Reported Oct 2 3:30 pm — Oct 17 3:30 pm, 22°43'N, 71°38'E. Weather by CustomWeather, © 2019

Note: Actual official high and low records may vary slightly from our data, if they occured in-between our weather recording intervals... More about our weather records

Advertising

22°43'N, 71°38'E Weather History for the Previous 24 Hours

Scroll right to see more
 ConditionsComfort  
Time TempWeatherWind HumidityBarometerVisibility
3:30 pm
Thu, Oct 17
97 °FClear.2 mph30%29.86 "Hg4 mi
3:00 pm97 °FClear.3 mph32%29.86 "Hg4 mi
2:30 pm97 °FClear.5 mph32%29.86 "Hg4 mi
2:00 pm97 °FClear.6 mph32%29.89 "Hg4 mi
1:30 pm95 °FClear.5 mph34%29.89 "Hg4 mi
1:00 pm95 °FClear.No wind36%29.92 "Hg4 mi
12:30 pm95 °FClear.5 mph36%29.92 "Hg4 mi
12:00 pm93 °FClear.3 mph39%29.95 "Hg4 mi
11:30 am93 °FClear.3 mph39%29.95 "Hg3 mi
11:00 am91 °FClear.3 mph44%29.95 "Hg3 mi
10:30 am90 °FClear.5 mph43%29.98 "Hg3 mi
10:00 am88 °FClear.5 mph49%29.98 "Hg3 mi
9:30 am86 °FClear.3 mph55%29.98 "Hg2 mi
9:00 am84 °FClear.3 mph55%29.95 "Hg2 mi
8:30 am81 °FClear.3 mph58%29.95 "Hg1 mi
8:00 am77 °FHaze.3 mph65%29.95 "Hg1 mi
7:30 am75 °FHaze.3 mph69%29.95 "Hg1 mi
7:00 am73 °FHaze.5 mph74%29.95 "Hg1 mi
6:30 am73 °FHaze.5 mph74%29.92 "Hg2 mi
6:00 am72 °FHaze.No wind78%29.92 "Hg2 mi
5:30 am72 °FHaze.No wind83%29.89 "Hg2 mi
5:00 am73 °FHaze.No wind78%29.89 "Hg2 mi
4:30 am75 °FHaze.No wind74%29.89 "Hg2 mi
4:00 am75 °FHaze.No wind74%29.89 "Hg2 mi
3:30 am75 °FHaze.No wind74%29.89 "Hg2 mi
3:00 am75 °FHaze.5 mph74%29.89 "Hg2 mi
2:30 am75 °FHaze.No wind74%29.89 "Hg2 mi
2:00 am77 °FHaze.3 mph69%29.89 "Hg2 mi
1:30 am77 °FHaze.2 mph69%29.89 "Hg2 mi
1:00 am77 °FHaze.No wind74%29.92 "Hg2 mi
12:30 am77 °FHaze.No wind79%29.92 "Hg2 mi
12:00 am79 °FHaze.No wind70%29.92 "Hg2 mi
11:30 pm
Wed, Oct 16
79 °FHaze.2 mph70%29.92 "Hg2 mi
11:00 pm79 °FHaze.No wind74%29.92 "Hg2 mi
10:30 pm79 °FHaze.2 mph74%29.92 "Hg2 mi
10:00 pm81 °FHaze.No wind62%29.92 "Hg2 mi
9:30 pm82 °FHaze.No wind58%29.92 "Hg2 mi
9:00 pm82 °FHaze.No wind66%29.92 "Hg2 mi
8:30 pm82 °FHaze.No wind74%29.89 "Hg2 mi
8:00 pm86 °FClear.No wind46%29.89 "Hg2 mi
7:30 pm88 °FClear.No wind43%29.89 "Hg2 mi
7:00 pm90 °FClear.No wind41%29.86 "Hg2 mi
6:30 pm91 °FClear.No wind38%29.86 "Hg2 mi
6:00 pm93 °FSmoke.No wind36%29.86 "Hg2 mi
5:30 pm95 °FSmoke.3 mph34%29.86 "Hg3 mi
5:00 pm95 °FSmoke.5 mph32%29.86 "Hg3 mi
4:30 pm97 °FClear.5 mph32%29.86 "Hg4 mi
4:00 pm97 °FClear.7 mph28%29.86 "Hg4 mi
Weather by CustomWeather, © 2019

See weather overview